Hebbronville, TX

1:06 PM CDT on April 25, 2017 (GMT -0500)
Hogg County

Weather History for KHBV - November, 2012

Change the Weather History Date:

Monday, November 5, 2012

  Actual Average (KALI) Record (KALI)
Temperature  
Mean Temperature 75 °F -  
Max Temperature 88 °F 76 °F 90 °F (2005)
Min Temperature 62 °F 56 °F 43 °F (2010)
Cooling Degree Days 10    
Growing Degree Days 25 (Base 50)    
Moisture  
Dew Point 61 °F    
Average Humidity 66    
Maximum Humidity 95    
Minimum Humidity 29    
Precipitation  
Precipitation 0.00 in - - ()
Sea Level Pressure  
Sea Level Pressure 30.04 in    
Wind  
Wind Speed 3 mph (SSW)    
Max Wind Speed 8 mph    
Max Gust Speed -    
Visibility 10 miles    
Events      
Averages and records for this station are not official NWS values.
T = Trace of Precipitation, MM = Missing Value Source: NWS Daily Summary

Daily Weather History Graph

Daily Weather History Graph

Search for Another Location

Airport or City:

Trip Planner

Search our weather history database for the weather conditions in past years. The results will help you decide how hot, cold, wet, or windy it might be!

Date:

Astronomy

Nov. 05, 2012 Rise Set
Actual Time 6:48 AM CST 5:48 PM CST
Civil Twilight 6:24 AM CST 6:12 PM CST
Nautical Twilight 5:56 AM CST 6:40 PM CST
Astronomical Twilight 5:28 AM CST 7:07 PM CST
Moon 11:26 PM CST (11/5) 12:07 PM CST (11/5)
Length of Visible Light 11h 48m
Length of Day
10h 59m
Waning Gibbous, 62% of the Moon is Illuminated
Nov 5
Waning Gibbous
Nov 6
Last Quarter
Nov 13
New
Nov 20
First Quarter
Nov 28
Full

Hourly Weather History & Observations

Time (CST) Temp. Heat Index Dew Point Humidity Pressure Visibility Wind Dir Wind Speed Gust Speed Precip Events Conditions
12:15 AM 65.1 °F - 62.1 °F 90% 30.09 in 10.0 mi Calm Calm - N/A   Overcast
12:35 AM 65.7 °F - 62.2 °F 89% 30.09 in 10.0 mi SSW 4.6 mph - N/A   Scattered Clouds
12:55 AM 65.1 °F - 62.1 °F 90% 30.08 in 10.0 mi SSW 4.6 mph - N/A   Scattered Clouds
1:15 AM 64.9 °F - 62.1 °F 90% 30.08 in 10.0 mi SSW 3.5 mph - N/A   Scattered Clouds
1:35 AM 64.6 °F - 61.9 °F 91% 30.08 in 10.0 mi SW 3.5 mph - N/A   Clear
1:55 AM 64.6 °F - 62.4 °F 93% 30.08 in 7.0 mi SSW 4.6 mph - N/A   Clear
2:15 AM 64.8 °F - 63.0 °F 94% 30.08 in 7.0 mi Calm Calm - N/A   Clear
2:35 AM 65.1 °F - 63.1 °F 93% 30.07 in 7.0 mi Calm Calm - N/A   Clear
2:55 AM 64.8 °F - 63.0 °F 94% 30.06 in 7.0 mi Calm Calm - N/A   Clear
3:15 AM 64.0 °F - 62.2 °F 94% 30.06 in 7.0 mi Calm Calm - N/A   Clear
3:35 AM 63.0 °F - 61.2 °F 94% 30.05 in 5.0 mi Calm Calm - N/A   Clear
3:55 AM 62.8 °F - 61.3 °F 95% 30.05 in 7.0 mi Calm Calm - N/A   Clear
4:15 AM 62.6 °F - 61.0 °F 94% 30.05 in 7.0 mi Calm Calm - N/A   Clear
4:35 AM 62.8 °F - 61.2 °F 94% 30.05 in 7.0 mi Calm Calm - N/A   Clear
4:55 AM 63.1 °F - 61.5 °F 94% 30.05 in 10.0 mi WSW 4.6 mph - N/A   Clear
5:35 AM 63.3 °F - 61.2 °F 93% 30.05 in 10.0 mi NW 3.5 mph - N/A   Clear
5:55 AM 62.6 °F - 60.3 °F 92% 30.05 in 7.0 mi WNW 4.6 mph - N/A   Clear
6:15 AM 62.4 °F - 60.4 °F 93% 30.05 in 10.0 mi Calm Calm - N/A   Clear
6:35 AM 62.4 °F - 60.4 °F 93% 30.05 in 10.0 mi WNW 4.6 mph - N/A   Clear
6:55 AM 62.4 °F - 60.3 °F 93% 30.06 in 10.0 mi Calm Calm - N/A   Clear
7:15 AM 62.4 °F - 60.1 °F 92% 30.06 in 10.0 mi SSW 3.5 mph - N/A   Clear
7:35 AM 63.1 °F - 60.4 °F 91% 30.06 in 10.0 mi WSW 4.6 mph - N/A   Clear
7:55 AM 65.8 °F - 61.3 °F 85% 30.07 in 10.0 mi Calm Calm - N/A   Clear
8:15 AM 68.7 °F - 61.7 °F 78% 30.07 in 10.0 mi Calm Calm - N/A   Clear
8:35 AM 70.9 °F - 62.4 °F 75% 30.08 in 10.0 mi SSE 3.5 mph - N/A   Clear
8:55 AM 72.3 °F - 63.0 °F 72% 30.09 in 10.0 mi SSE 3.5 mph - N/A   Clear
9:15 AM 73.6 °F - 63.1 °F 70% 30.09 in 10.0 mi Calm Calm - N/A   Clear
9:35 AM 75.9 °F - 63.5 °F 65% 30.10 in 10.0 mi SE 3.5 mph - N/A   Clear
9:55 AM 78.1 °F - 63.7 °F 61% 30.10 in 10.0 mi South 4.6 mph - N/A   Clear
10:15 AM 79.3 °F - 63.7 °F 59% 30.10 in 10.0 mi SE 5.8 mph - N/A   Clear
10:35 AM 80.4 °F 81.7 °F 63.0 °F 55% 30.09 in 10.0 mi South 5.8 mph - N/A   Clear
10:55 AM 81.3 °F 82.3 °F 62.2 °F 52% 30.09 in 10.0 mi South 4.6 mph - N/A   Clear
11:15 AM 82.2 °F 83.2 °F 62.4 °F 51% 30.08 in 10.0 mi Calm Calm - N/A   Clear
11:35 AM 83.1 °F 83.9 °F 62.4 °F 49% 30.07 in 10.0 mi SSE 4.6 mph - N/A   Clear
11:55 AM 83.7 °F 84.5 °F 62.4 °F 49% 30.06 in 10.0 mi SSE 4.6 mph - N/A   Clear
12:15 PM 84.6 °F 85.4 °F 62.6 °F 48% 30.05 in 10.0 mi SE 5.8 mph - N/A   Scattered Clouds
12:35 PM 86.0 °F 86.6 °F 62.2 °F 45% 30.04 in 10.0 mi South 4.6 mph - N/A   Clear
12:55 PM 85.8 °F 86.1 °F 61.7 °F 44% 30.03 in 10.0 mi Calm Calm - N/A   Clear
1:15 PM 86.2 °F 86.3 °F 61.3 °F 43% 30.01 in 10.0 mi South 4.6 mph - N/A   Mostly Cloudy
1:35 PM 87.1 °F 87.0 °F 61.0 °F 41% 30.00 in 10.0 mi SSE 5.8 mph - N/A   Overcast
1:55 PM 86.5 °F 86.1 °F 59.9 °F 40% 29.99 in 10.0 mi WSW 4.6 mph - N/A   Scattered Clouds
2:15 PM 86.4 °F 85.4 °F 58.3 °F 38% 29.98 in 10.0 mi West 6.9 mph - N/A   Clear
2:35 PM 86.5 °F 85.4 °F 57.4 °F 37% 29.97 in 10.0 mi WNW 5.8 mph - N/A   Clear
2:55 PM 87.6 °F 86.3 °F 56.7 °F 35% 29.96 in 10.0 mi Calm Calm - N/A   Clear
3:15 PM 88.0 °F 86.5 °F 56.5 °F 34% 29.96 in 10.0 mi WNW 3.5 mph - N/A   Clear
3:35 PM 88.5 °F 86.5 °F 54.7 °F 31% 29.96 in 10.0 mi WSW 8.1 mph - N/A   Clear
3:55 PM 88.7 °F - 52.2 °F 29% 29.96 in 10.0 mi West 8.1 mph - N/A   Clear
4:15 PM 88.3 °F 86.1 °F 53.1 °F 30% 29.96 in 10.0 mi SW 5.8 mph - N/A   Clear
4:35 PM 88.3 °F - 52.7 °F 29% 29.96 in 10.0 mi WSW 4.6 mph - N/A   Clear
4:55 PM 87.8 °F - 52.3 °F 30% 29.96 in 10.0 mi West 8.1 mph - N/A   Clear
5:15 PM 87.1 °F 85.3 °F 54.3 °F 33% 29.96 in 10.0 mi West 3.5 mph - N/A   Clear
5:35 PM 86.0 °F 84.3 °F 54.5 °F 34% 29.98 in 10.0 mi Calm Calm - N/A   Clear
5:55 PM 84.6 °F 83.5 °F 56.3 °F 38% 29.98 in 10.0 mi Calm Calm - N/A   Clear
6:15 PM 83.1 °F 82.6 °F 57.4 °F 41% 29.99 in 10.0 mi Calm Calm - N/A   Clear
6:35 PM 81.5 °F 81.5 °F 57.9 °F 44% 30.00 in 10.0 mi ESE 3.5 mph - N/A   Clear
6:55 PM 80.6 °F 81.2 °F 59.5 °F 49% 30.00 in 10.0 mi Calm Calm - N/A   Clear
7:15 PM 79.9 °F - 59.9 °F 50% 30.01 in 10.0 mi Calm Calm - N/A   Clear
7:35 PM 79.2 °F - 59.9 °F 52% 30.01 in 10.0 mi Calm Calm - N/A   Clear
7:55 PM 76.8 °F - 59.9 °F 56% 30.02 in 10.0 mi South 3.5 mph - N/A   Clear
8:15 PM 75.6 °F - 60.3 °F 59% 30.02 in 10.0 mi SSE 4.6 mph - N/A   Clear
8:35 PM 74.7 °F - 60.3 °F 61% 30.02 in 10.0 mi SSE 4.6 mph - N/A   Clear
8:55 PM 73.9 °F - 60.8 °F 63% 30.02 in 10.0 mi SE 5.8 mph - N/A   Clear
9:15 PM 73.6 °F - 62.4 °F 68% 30.03 in 10.0 mi SSE 4.6 mph - N/A   Clear
9:35 PM 72.9 °F - 63.5 °F 72% 30.03 in 10.0 mi South 3.5 mph - N/A   Clear
9:55 PM 71.6 °F - 63.1 °F 75% 30.03 in 10.0 mi South 4.6 mph - N/A   Clear
10:15 PM 70.3 °F - 62.8 °F 77% 30.03 in 10.0 mi SSE 4.6 mph - N/A   Clear
10:35 PM 70.0 °F - 63.1 °F 79% 30.03 in 10.0 mi South 4.6 mph - N/A   Clear
10:55 PM 69.1 °F - 63.0 °F 81% 30.03 in 10.0 mi SSE 3.5 mph - N/A   Clear
11:15 PM 68.9 °F - 63.3 °F 82% 30.03 in 10.0 mi Calm Calm - N/A   Clear
11:35 PM 68.5 °F - 63.3 °F 83% 30.03 in 10.0 mi Calm Calm - N/A   Clear
11:55 PM 67.8 °F - 63.0 °F 84% 30.03 in 10.0 mi SW 3.5 mph - N/A   Clear